Weather History for Fountain Dale, PA

Change the Weather History Date:

Monday, January 27, 2014

  Actual Average (KHGR) Record (KHGR)
Temperature  
Mean Temperature 29 °F -  
Max Temperature 46 °F 35 °F 64 °F (2002)
Min Temperature 10 °F 21 °F 8 °F (2003)
Degree Days  
Heating Degree Days 36    
Moisture  
Dew Point 8 °F    
Average Humidity 51    
Maximum Humidity 68    
Minimum Humidity 39    
Precipitation  
Precipitation 0.00 in - - ()
Sea Level Pressure  
Sea Level Pressure 29.86 in    
Wind  
Wind Speed 5 mph (WNW)    
Max Wind Speed 16 mph    
Max Gust Speed 33 mph    
Visibility 10 miles    
Events      
Averages and records for this station are not official NWS values.
T = Trace of Precipitation, MM = Missing Value Source: NWS Daily Summary

Daily Weather History Graph

Daily Weather History Graph

Search for Another Location

Airport:

Trip Planner

Search our weather history database for the weather conditions in past years. The results will help you decide how hot, cold, wet, or windy it might be!

Date:

Astronomy

Jan. 27, 2014 Rise Set
Actual Time 7:21 AM EST 5:23 PM EST
Civil Twilight 6:53 AM EST 5:52 PM EST
Nautical Twilight 6:20 AM EST 6:24 PM EST
Astronomical Twilight 5:48 AM EST 6:56 PM EST
Moon 4:00 AM EST (1/27) 2:07 PM EST (1/27)
Length of Visible Light 10h 59m
Length of Day
10h 01m
Waning Crescent, 15% of the Moon is Illuminated
Jan 27
Waning Crescent
Jan 30
New
Feb 6
First Quarter
Feb 14
Full
Feb 22
Last Quarter

Hourly Weather History & Observations

Time (EST) Temp. Windchill Dew Point Humidity Pressure Visibility Wind Dir Wind Speed Gust Speed Precip Events Conditions
12:53 AM 21.0 °F - 9.0 °F 60% 29.71 in 10.0 mi Calm Calm - N/A   Clear
1:53 AM 21.0 °F - 10.0 °F 63% 29.69 in 10.0 mi Calm Calm - N/A   Mostly Cloudy
2:53 AM 21.0 °F - 9.0 °F 60% 29.68 in 10.0 mi Calm Calm - N/A   Clear
3:53 AM 19.0 °F - 10.0 °F 68% 29.65 in 10.0 mi Calm Calm - N/A   Clear
4:53 AM 21.0 °F - 10.9 °F 65% 29.63 in 10.0 mi Calm Calm - N/A   Overcast
5:53 AM 23.0 °F - 12.0 °F 63% 29.62 in 10.0 mi Calm Calm - N/A   Overcast
6:53 AM 44.1 °F 38.1 °F 24.1 °F 45% 29.61 in 10.0 mi SW 11.5 mph 20.7 mph N/A   Overcast
7:53 AM 44.1 °F 39.5 °F 25.0 °F 47% 29.64 in 10.0 mi SW 8.1 mph 20.7 mph N/A   Overcast
8:53 AM 46.0 °F 41.9 °F 28.9 °F 51% 29.65 in 10.0 mi WSW 8.1 mph 23.0 mph N/A   Clear
9:53 AM 35.1 °F 27.4 °F 24.1 °F 64% 29.75 in 10.0 mi West 10.4 mph 27.6 mph N/A   Mostly Cloudy
10:28 AM 33.8 °F 25.3 °F 19.4 °F 56% 29.74 in 10.0 mi NNW 11.5 mph 29.9 mph N/A   Overcast
10:53 AM 32.0 °F 23.6 °F 19.0 °F 59% 29.81 in 10.0 mi West 10.4 mph 23.0 mph N/A   Overcast
11:53 AM 30.9 °F 20.2 °F 17.1 °F 57% 29.83 in 10.0 mi WNW 15.0 mph 28.8 mph N/A   Clear
12:53 PM 27.0 °F 14.7 °F 9.0 °F 47% 29.87 in 10.0 mi NW 16.1 mph 31.1 mph N/A   Clear
1:53 PM 24.1 °F 11.0 °F 9.0 °F 53% 29.90 in 10.0 mi NW 16.1 mph 33.4 mph N/A   Clear
2:53 PM 21.9 °F 8.7 °F 3.0 °F 44% 29.94 in 10.0 mi NW 15.0 mph 25.3 mph N/A   Clear
3:53 PM 21.9 °F 12.5 °F 1.0 °F 40% 29.97 in 10.0 mi WNW 8.1 mph 16.1 mph N/A   Clear
4:53 PM 19.9 °F 7.9 °F -0.9 °F 40% 30.01 in 10.0 mi West 11.5 mph 20.7 mph N/A   Clear
5:53 PM 19.0 °F 10.0 °F -0.9 °F 42% 30.05 in 10.0 mi Variable 6.9 mph - N/A   Clear
6:53 PM 18.0 °F 9.8 °F -2.0 °F 41% 30.06 in 10.0 mi Variable 5.8 mph - N/A   Clear
7:53 PM 16.0 °F 6.3 °F -5.1 °F 39% 30.10 in 10.0 mi Variable 6.9 mph 19.6 mph N/A   Clear
8:53 PM 15.1 °F 9.4 °F -4.0 °F 43% 30.13 in 10.0 mi Variable 3.5 mph - N/A   Clear
9:53 PM 14.0 °F 2.9 °F -7.1 °F 39% 30.17 in 10.0 mi NNW 8.1 mph 21.9 mph N/A   Clear
10:53 PM 12.9 °F -0.9 °F -6.0 °F 43% 30.19 in 10.0 mi NW 11.5 mph 20.7 mph N/A   Clear
11:53 PM 10.9 °F 2.9 °F -6.0 °F 47% 30.21 in 10.0 mi Variable 4.6 mph - N/A   Clear